GAF161 ETNW-EDDF

Flight info

Callsign GAF161
Flight time 0h 44m
Altitude 23000
Route ROBEG N850 PIROT T152 ROBAR Z190 ELNAT/N0331F260 DCT BEBLA/N0323F240 Z20 RANIN/N0314F230 T152 KERAX KERAX5A
Aircraft A400/H-SDE2E3FGHIJ4J5M1RWXY/LB1D1

Departure

Time 2026-05-04 13:15
Airport Wunstorf Air Base (ETNW)

Arrival

Time 2026-05-04 13:59
Airport Frankfurt Main Airport (EDDF)
Time Latitude Longitude Altitude Speed Heading
2026-05-04 12:56 52.45910 9.41813 187 ft 0 kts 262°
2026-05-04 13:11 52.45910 9.41810 184 ft 4 kts 262°
2026-05-04 13:11 52.45906 9.41767 183 ft 3 kts 262°
2026-05-04 13:12 52.45901 9.41716 182 ft 6 kts 259°
2026-05-04 13:12 52.45891 9.41635 183 ft 8 kts 260°
2026-05-04 13:12 52.45860 9.41572 183 ft 8 kts 199°
2026-05-04 13:12 52.45808 9.41552 185 ft 5 kts 206°
2026-05-04 13:13 52.45796 9.41542 186 ft 4 kts 212°
2026-05-04 13:13 52.45742 9.41432 204 ft 15 kts 236°
2026-05-04 13:13 52.45688 9.41302 207 ft 13 kts 224°
2026-05-04 13:13 52.45617 9.41332 200 ft 13 kts 109°
2026-05-04 13:14 52.45619 9.41433 198 ft 0 kts 80°
2026-05-04 13:15 52.45620 9.41448 191 ft 5 kts 81°
2026-05-04 13:15 52.45664 9.41893 195 ft 98 kts 81°
2026-05-04 13:15 52.45826 9.43587 352 ft 188 kts 81°
2026-05-04 13:15 52.46031 9.45754 807 ft 181 kts 80°
2026-05-04 13:16 52.46383 9.47654 1071 ft 173 kts 48°
2026-05-04 13:16 52.47004 9.48682 1365 ft 204 kts 40°
2026-05-04 13:16 52.48222 9.50620 2314 ft 227 kts 43°
2026-05-04 13:16 52.49380 9.52472 3591 ft 237 kts 42°
2026-05-04 13:17 52.50552 9.54402 5108 ft 242 kts 44°
2026-05-04 13:17 52.51739 9.56400 6631 ft 247 kts 45°
2026-05-04 13:17 52.53028 9.58239 8085 ft 251 kts 26°
2026-05-04 13:17 52.54706 9.58950 9605 ft 251 kts
2026-05-04 13:18 52.56466 9.59068 10997 ft 257 kts 357°
2026-05-04 13:18 52.58263 9.58913 12425 ft 260 kts 345°
2026-05-04 13:18 52.59934 9.57874 13885 ft 256 kts 322°
2026-05-04 13:18 52.61278 9.55912 15025 ft 267 kts 308°
2026-05-04 13:19 52.62387 9.53310 15681 ft 289 kts 290°
2026-05-04 13:19 52.62753 9.50034 16523 ft 296 kts 263°
2026-05-04 13:19 52.62065 9.46839 17450 ft 303 kts 236°
2026-05-04 13:19 52.60501 9.44556 18447 ft 311 kts 212°
2026-05-04 13:20 52.58513 9.43076 19437 ft 317 kts 202°
2026-05-04 13:20 52.56386 9.42032 20463 ft 321 kts 198°
2026-05-04 13:20 52.54198 9.41164 21504 ft 325 kts 197°
2026-05-04 13:20 52.51984 9.40318 22368 ft 329 kts 198°
2026-05-04 13:21 52.49748 9.39416 22855 ft 334 kts 199°
2026-05-04 13:21 52.47494 9.38444 22966 ft 335 kts 200°
2026-05-04 13:21 52.45253 9.37421 22954 ft 334 kts 200°
2026-05-04 13:21 52.43023 9.36370 22955 ft 334 kts 200°
2026-05-04 13:22 52.40821 9.35314 22957 ft 334 kts 201°
2026-05-04 13:22 52.38594 9.34239 22961 ft 334 kts 200°
2026-05-04 13:22 52.36360 9.33162 22959 ft 336 kts 200°
2026-05-04 13:22 52.34117 9.32085 22963 ft 336 kts 200°
2026-05-04 13:23 52.31872 9.31010 22959 ft 336 kts 200°
2026-05-04 13:23 52.29625 9.29938 22964 ft 336 kts 200°
2026-05-04 13:23 52.27378 9.28870 22964 ft 336 kts 200°
2026-05-04 13:23 52.25128 9.27803 22967 ft 337 kts 200°
2026-05-04 13:24 52.22824 9.27012 22962 ft 340 kts 194°
2026-05-04 13:24 52.20484 9.26436 22965 ft 341 kts 192°
2026-05-04 13:24 52.18165 9.25954 22963 ft 341 kts 191°
2026-05-04 13:25 52.13438 9.25101 22959 ft 342 kts 190°
2026-05-04 13:25 52.11067 9.24691 22962 ft 343 kts 190°
2026-05-04 13:25 52.08693 9.24278 22959 ft 343 kts 190°
2026-05-04 13:25 52.06314 9.23896 22960 ft 345 kts 187°
2026-05-04 13:26 52.03912 9.23824 22959 ft 346 kts 185°
2026-05-04 13:26 52.01530 9.23852 22953 ft 347 kts 184°
2026-05-04 13:26 51.99118 9.23940 22955 ft 347 kts 183°
2026-05-04 13:26 51.96703 9.24060 22955 ft 347 kts 183°
2026-05-04 13:27 51.94290 9.24192 22953 ft 347 kts 182°
2026-05-04 13:27 51.91871 9.24325 22944 ft 347 kts 182°
2026-05-04 13:27 51.89457 9.24454 22950 ft 348 kts 182°
2026-05-04 13:27 51.87039 9.24579 22953 ft 348 kts 182°
2026-05-04 13:28 51.84622 9.24699 22957 ft 348 kts 182°
2026-05-04 13:28 51.82204 9.24817 22955 ft 348 kts 182°
2026-05-04 13:28 51.79786 9.24933 22954 ft 348 kts 182°
2026-05-04 13:28 51.77368 9.25049 22956 ft 348 kts 183°
2026-05-04 13:29 51.74985 9.25163 22951 ft 348 kts 182°
2026-05-04 13:29 51.72568 9.25278 22952 ft 347 kts 182°
2026-05-04 13:29 51.70151 9.25394 22955 ft 348 kts 182°
2026-05-04 13:29 51.67735 9.25510 22941 ft 347 kts 182°
2026-05-04 13:30 51.65320 9.25626 22954 ft 347 kts 182°
2026-05-04 13:30 51.62906 9.25742 22956 ft 347 kts 182°
2026-05-04 13:30 51.60489 9.25858 22953 ft 347 kts 182°
2026-05-04 13:30 51.58071 9.25973 22955 ft 347 kts 182°
2026-05-04 13:31 51.55657 9.26088 22958 ft 348 kts 182°
2026-05-04 13:31 51.53283 9.26201 22958 ft 347 kts 182°
2026-05-04 13:31 51.50867 9.26316 22960 ft 348 kts 182°
2026-05-04 13:31 51.48451 9.26431 22959 ft 348 kts 182°
2026-05-04 13:32 51.46032 9.26717 22960 ft 351 kts 175°
2026-05-04 13:32 51.43666 9.27752 22951 ft 357 kts 162°
2026-05-04 13:32 51.41495 9.29748 22960 ft 364 kts 146°
2026-05-04 13:32 51.39614 9.32496 22960 ft 368 kts 139°
2026-05-04 13:33 51.37876 9.35526 22962 ft 370 kts 135°
2026-05-04 13:33 51.36241 9.38643 22968 ft 371 kts 134°
2026-05-04 13:33 51.34607 9.41850 22964 ft 372 kts 134°
2026-05-04 13:33 51.32982 9.45053 22963 ft 372 kts 134°
2026-05-04 13:34 51.31343 9.48257 22931 ft 372 kts 134°
2026-05-04 13:34 51.29697 9.51438 22635 ft 371 kts 135°
2026-05-04 13:34 51.28048 9.54595 22202 ft 369 kts 135°
2026-05-04 13:34 51.26405 9.57719 21940 ft 367 kts 135°
2026-05-04 13:35 51.24761 9.60829 21684 ft 365 kts 135°
2026-05-04 13:35 51.21104 9.66146 21161 ft 353 kts 154°
2026-05-04 13:35 51.18873 9.67646 20905 ft 345 kts 169°
2026-05-04 13:36 51.16533 9.68133 20644 ft 339 kts 182°
2026-05-04 13:36 51.14191 9.68028 20392 ft 336 kts 187°
2026-05-04 13:36 51.11868 9.67657 20147 ft 334 kts 190°
2026-05-04 13:36 51.09565 9.67160 19898 ft 333 kts 192°
2026-05-04 13:37 51.07330 9.66282 19664 ft 330 kts 201°
2026-05-04 13:37 51.05283 9.64691 19414 ft 327 kts 214°
2026-05-04 13:37 51.03597 9.62384 19176 ft 325 kts 229°
2026-05-04 13:37 51.02694 9.60432 19025 ft 325 kts 236°
2026-05-04 13:38 51.01241 9.56289 18716 ft 324 kts 243°
2026-05-04 13:38 51.00299 9.53049 18481 ft 323 kts 245°
2026-05-04 13:38 50.99411 9.49777 18242 ft 323 kts 246°
2026-05-04 13:38 50.98536 9.46500 17982 ft 322 kts 246°
2026-05-04 13:39 50.97654 9.43243 17718 ft 321 kts 247°
2026-05-04 13:39 50.96748 9.40015 17454 ft 320 kts 243°
2026-05-04 13:39 50.95584 9.37038 17145 ft 319 kts 231°
2026-05-04 13:39 50.94034 9.34614 16830 ft 317 kts 217°
2026-05-04 13:40 50.92100 9.32958 16512 ft 317 kts 200°
2026-05-04 13:40 50.89933 9.32314 16198 ft 319 kts 183°
2026-05-04 13:40 50.87736 9.32777 15895 ft 321 kts 166°
2026-05-04 13:40 50.85654 9.34062 15586 ft 322 kts 158°
2026-05-04 13:41 50.83659 9.35665 15296 ft 322 kts 154°
2026-05-04 13:41 50.81716 9.37413 15004 ft 321 kts 152°
2026-05-04 13:41 50.79799 9.39198 14718 ft 319 kts 152°
2026-05-04 13:42 50.76113 9.42589 14143 ft 317 kts 153°
2026-05-04 13:42 50.74224 9.44277 13861 ft 315 kts 153°
2026-05-04 13:42 50.72313 9.45956 13557 ft 314 kts 153°
2026-05-04 13:42 50.70407 9.47613 13239 ft 312 kts 153°
2026-05-04 13:43 50.68507 9.49254 12924 ft 311 kts 153°
2026-05-04 13:43 50.66612 9.50886 12616 ft 309 kts 153°
2026-05-04 13:43 50.64730 9.52506 12312 ft 308 kts 153°
2026-05-04 13:43 50.62855 9.54119 11986 ft 307 kts 153°
2026-05-04 13:44 50.60977 9.55695 11687 ft 305 kts 157°
2026-05-04 13:44 50.58997 9.56794 11391 ft 301 kts 169°
2026-05-04 13:44 50.56938 9.57279 11099 ft 298 kts 176°
2026-05-04 13:44 50.54877 9.57537 10979 ft 297 kts 178°
2026-05-04 13:45 50.52816 9.57722 10972 ft 296 kts 180°
2026-05-04 13:45 50.50775 9.57464 10968 ft 293 kts 193°
2026-05-04 13:45 50.48868 9.56369 10944 ft 291 kts 207°
2026-05-04 13:45 50.47167 9.54794 10529 ft 281 kts 213°
2026-05-04 13:46 50.45558 9.53125 10137 ft 281 kts 213°
2026-05-04 13:46 50.43947 9.51430 9644 ft 276 kts 214°
2026-05-04 13:46 50.42361 9.49765 9133 ft 273 kts 214°
2026-05-04 13:46 50.40786 9.48118 8615 ft 270 kts 214°
2026-05-04 13:47 50.39226 9.46493 8111 ft 269 kts 213°
2026-05-04 13:47 50.37680 9.44885 7615 ft 265 kts 214°
2026-05-04 13:47 50.36140 9.43304 7157 ft 264 kts 213°
2026-05-04 13:47 50.34607 9.41730 6990 ft 263 kts 213°
2026-05-04 13:48 50.33078 9.40157 6976 ft 264 kts 213°
2026-05-04 13:48 50.31624 9.38402 6977 ft 264 kts 224°
2026-05-04 13:48 50.30426 9.36230 6978 ft 264 kts 232°
2026-05-04 13:48 50.29347 9.33905 6978 ft 263 kts 234°
2026-05-04 13:49 50.28316 9.31550 6979 ft 263 kts 235°
2026-05-04 13:49 50.27296 9.29170 6973 ft 263 kts 236°
2026-05-04 13:49 50.26278 9.26775 6877 ft 266 kts 236°
2026-05-04 13:49 50.25274 9.24402 6635 ft 265 kts 237°
2026-05-04 13:50 50.24262 9.22005 6299 ft 263 kts 237°
2026-05-04 13:50 50.23257 9.19622 5923 ft 262 kts 237°
2026-05-04 13:50 50.22259 9.17259 5540 ft 260 kts 237°
2026-05-04 13:50 50.21268 9.14911 5163 ft 259 kts 237°
2026-05-04 13:51 50.20280 9.12572 4797 ft 258 kts 237°
2026-05-04 13:51 50.19296 9.10245 4399 ft 256 kts 237°
2026-05-04 13:51 50.18317 9.07931 4073 ft 254 kts 237°
2026-05-04 13:51 50.17345 9.05636 3985 ft 253 kts 237°
2026-05-04 13:52 50.15440 9.01146 3973 ft 234 kts 237°
2026-05-04 13:52 50.14564 8.99084 3989 ft 224 kts 236°
2026-05-04 13:52 50.13730 8.97122 3974 ft 211 kts 237°
2026-05-04 13:53 50.12958 8.95360 3975 ft 183 kts 237°
2026-05-04 13:53 50.12362 8.93603 3990 ft 192 kts 246°
2026-05-04 13:53 50.11884 8.91697 3984 ft 185 kts 249°
2026-05-04 13:54 50.11015 8.87997 3980 ft 180 kts 249°
2026-05-04 13:54 50.10576 8.86181 3985 ft 179 kts 249°
2026-05-04 13:54 50.09688 8.82548 3613 ft 177 kts 249°
2026-05-04 13:55 50.09263 8.80740 3365 ft 178 kts 249°
2026-05-04 13:55 50.08406 8.77133 2853 ft 177 kts 249°
2026-05-04 13:55 50.07980 8.75342 2612 ft 176 kts 249°
2026-05-04 13:56 50.07557 8.73566 2409 ft 176 kts 250°
2026-05-04 13:56 50.07137 8.71802 2152 ft 176 kts 249°
2026-05-04 13:56 50.06339 8.68446 1703 ft 142 kts 249°
2026-05-04 13:57 50.06018 8.67098 1527 ft 125 kts 249°
2026-05-04 13:57 50.05723 8.65862 1371 ft 120 kts 250°
2026-05-04 13:58 50.04865 8.62202 913 ft 124 kts 250°
2026-05-04 13:58 50.04272 8.59771 544 ft 117 kts 247°
2026-05-04 13:58 50.03984 8.58569 440 ft 119 kts 245°
2026-05-04 13:59 50.03704 8.57424 368 ft 110 kts 248°
2026-05-04 13:59 50.03501 8.56567 365 ft 66 kts 249°
2026-05-04 13:59 50.03220 8.55577 362 ft 38 kts 225°
2026-05-04 14:00 50.03153 8.55478 352 ft 0 kts 222°
2026-05-04 14:00 50.03135 8.55459 356 ft 4 kts 209°
2026-05-04 14:00 50.03100 8.55453 354 ft 6 kts 173°
2026-05-04 14:01 50.03073 8.55497 353 ft 6 kts 102°
2026-05-04 14:01 50.03084 8.55582 355 ft 10 kts 67°
2026-05-04 14:01 50.03149 8.55848 359 ft 16 kts 70°
2026-05-04 14:02 50.03190 8.56030 364 ft 19 kts 71°
2026-05-04 14:02 50.03212 8.56128 364 ft 9 kts 69°
2026-05-04 14:02 50.03246 8.56275 363 ft 18 kts 70°
2026-05-04 14:02 50.03295 8.56465 364 ft 20 kts 69°
2026-05-04 14:03 50.03342 8.56670 363 ft 18 kts 71°
2026-05-04 14:03 50.03292 8.56815 363 ft 16 kts 150°
2026-05-04 14:03 50.03200 8.56874 364 ft 14 kts 158°
2026-05-04 14:03 50.03107 8.56932 369 ft 15 kts 161°
2026-05-04 14:04 50.02937 8.57027 366 ft 11 kts 168°
2026-05-04 14:04 50.02887 8.56961 365 ft 11 kts 248°
2026-05-04 14:04 50.02873 8.56903 362 ft 2 kts 253°
2026-05-04 14:05 50.02871 8.56892 369 ft 0 kts 255°